{"data":{"norad_id":63586,"epoch":"2026-05-25T00:27:29.063232Z","epoch_age_seconds":73277,"freshness":"FRESH","line1":"1 63586U 25076T   26145.01908638  .00012338  00000+0  45704-3 0  9990","line2":"2 63586  43.0000 250.6522 0001319 240.0558 120.0163 15.27585791 63504","mean_motion":15.27585791,"eccentricity":0.0001319,"inclination_deg":43,"raan_deg":250.6522,"arg_perigee_deg":240.0558,"mean_anomaly_deg":120.0163,"bstar":0.00045704,"rev_number":6350,"period_min":94.266391353204,"perigee_km":482.12676759825,"apogee_km":483.93674391602,"semimajor_km":6861.1687557571,"source":"CELESTRAK","updated_at":"2026-05-25T13:38:20.049188Z"}}